sat.trackr.live / text

‹ back to catalog

STARLINK-31106

NORAD 58689 · 2023-211Y

PAYLOAD ACTIVE UNKNOWN

§ Identity

Operator
Country
US
Launch date
2023-12-29
Launch site
AFETR
Launch vehicle
Mass (kg)
RCS (m²)

Purposes: comms

External: N2YO · Heavens-Above · Gunter

§ Orbital elements

Epoch: 2026-05-24T23:44:57.857856Z

Period
94.27 min
Inclination
43.0026°
Eccentricity
0.0001141
Mean motion
15.27607496 rev/d
Perigee alt
482.2 km
Apogee alt
483.7 km
Semi-major
6,861.1 km
B*
2.9671e-4
RAAN
14.3808°
Arg perigee
263.0228°
Mean anomaly
97.0493°
Rev number
13,413

§ Raw data

STARLINK-311061 58689U 23211Y   26144.98955854  .00007918  00000+0  29671-3 0  99972 58689  43.0026  14.3808 0001141 263.0228  97.0493 15.27607496134138

JSON: /api/v1/satellites/58689 · /tle

For live sub-satellite position, see the globe view (requires WebGL).

§ Visibility from observer

Set your observer location to see the next 7 days of passes ≥ 10°. The values pass through the URL so the page stays shareable.

No JS? Fill the form by hand. The geolocation button needs JavaScript.